Location: Poughquag
(41.6090°N, 73.6820°W)
Time: 02:39:14
(UTC-04:00)

ISS - Visible Passes

Search period start: 28 May 2017 00:00
Search period end: 07 June 2017 00:00
Orbit: 402 x 408 km, 51.6° (Epoch: 28 May)

Date Brightness Start Highest point End Pass type
(mag) Time Alt. Az. Time Alt. Az. Time Alt. Az.
28 May -0.7 00:20:10 10° NNW 00:22:14 15° N 00:24:19 10° NE visible
28 May -1.4 01:56:19 10° NW 01:57:37 20° NNW 01:57:37 20° NNW visible
28 May -1.1 21:49:53 10° WNW 21:52:31 21° NNW 21:55:08 10° NE visible
28 May -0.6 23:28:00 10° NNW 23:29:55 14° N 23:31:50 10° NE visible
29 May -1.4 01:04:25 10° NW 01:06:25 23° N 01:06:25 23° N visible
29 May -1.6 20:57:19 10° W 21:00:16 29° NNW 21:03:14 10° NE visible
29 May -0.7 22:35:36 10° NW 22:37:33 15° N 22:39:30 10° NNE visible
30 May -1.3 00:12:28 10° NNW 00:15:00 20° NNE 00:15:37 19° NNE visible
30 May -0.8 21:43:02 10° NW 21:45:12 16° N 21:47:23 10° NNE visible
30 May -0.9 23:20:29 10° NNW 23:22:40 16° N 23:24:51 10° NE visible
31 May -1.2 00:56:35 10° NW 00:57:35 18° NW 00:57:35 18° NW visible
31 May -0.8 22:28:21 10° NNW 22:30:18 15° N 22:32:15 10° NE visible
01 Jun -1.7 00:04:37 10° NW 00:07:01 28° N 00:07:01 28° N visible
01 Jun -0.8 21:36:00 10° NW 21:37:55 14° N 21:39:50 10° NNE visible
01 Jun -1.5 23:12:40 10° NW 23:15:19 22° NNE 23:16:29 18° NE visible
02 Jun -0.8 00:48:50 10° WNW 00:49:08 12° WNW 00:49:08 12° WNW visible
02 Jun -1.1 22:20:41 10° NNW 22:22:59 17° NNE 22:25:16 10° ENE visible
02 Jun -1.9 23:56:45 10° NW 23:58:39 30° NW 23:58:39 30° NW visible
03 Jun -1.0 21:28:33 10° NNW 21:30:35 15° N 21:32:37 10° NE visible
03 Jun -2.5 23:04:44 10° NW 23:07:48 34° NNE 23:08:11 33° NE visible
04 Jun -1.8 22:12:45 10° NW 22:15:31 24° NNE 22:17:46 13° ENE visible
04 Jun -1.7 23:48:58 10° WNW 23:50:24 23° WNW 23:50:24 23° WNW visible
05 Jun -1.4 21:20:44 10° NNW 21:23:10 19° NNE 21:25:35 10° ENE visible
05 Jun -3.7 22:56:49 10° NW 23:00:00 69° NNE 23:00:00 69° NNE visible
06 Jun -2.8 22:04:45 10° NW 22:07:53 40° NNE 22:09:38 21° E visible
06 Jun -1.2 23:41:30 10° WNW 23:42:16 15° W 23:42:16 15° W visible
